Regional Weather Roundup
Issued by NWS

Home | Current Version | Previous Version | Text Only | Print | Product List | Glossary Off
Versions: 1 2 3 4 5 6 7 8 9 10 11 12 13 14 15 16 17 18 19 20 21 22 23 24 25 26 27 28 29 30 31 32 33 34 35 36 37 38 39 40 41 42 43 44 45 46 47 48 49 50

000
ASUS45 KBOU 261007
RWRCO

WEATHER ROUNDUP FOR COLORADO
NATIONAL WEATHER SERVICE DENVER/BOULDER CO
400 AM MDT SUN APR 26 2015

NOTE: "FAIR" INDICATES FEW OR NO CLOUDS BELOW 12000 FEET WITH NO
SIGNIFICANT WEATHER AND/OR OBSTRUCTIONS TO VISIBILITY.

COZ001>005-013-030-031-261100-
...NORTHWEST COLORADO...

CITY           SKY/WX    TMP DP  RH WIND       PRES   REMARKS
CRAIG          CLOUDY    43  35  73 CALM      29.74F
HAYDEN         CLOUDY    39  34  81 SE6       29.75F
MEEKER         MOCLDY    38  35  89 NW5       29.74S
MOUNT WERNER   NOT AVBL
STEAMBOAT SPGS CLOUDY    37  35  94 E6        29.76F
WALDEN         CLOUDY    34  32  93 E3        29.82S
$$

COZ006>008-011-261100-
...WEST CENTRAL VALLEYS...

CITY           SKY/WX    TMP DP  RH WIND       PRES   REMARKS
GRAND JUNCTION MOCLDY    43  42  97 CALM      29.71S
MONTROSE       CLOUDY    40  39  97 CALM      29.73F
EAGLE          CLOUDY    37  36  93 CALM      29.81F
RIFLE          MOCLDY    40  39  97 CALM      29.73F
DELTA          NOT AVBL
NUCLA          RAIN      43  37  81 W3        29.78R
$$

COZ017>023-064>068-261100-
...SOUTHWEST COLORADO...

CITY           SKY/WX    TMP DP  RH WIND       PRES   REMARKS
DURANGO        LGT RAIN  39  36  89 SE9       29.79F
CORTEZ         LGT RAIN  38  36  92 SW3       29.77F
PAGOSA SPRINGS DRIZZLE   38  36  94 W5        29.83F
TELLURIDE      CLOUDY    34  33  94 SW6       29.78S WCI  29
WOLF CREEK PAS NOT AVBL
$$

COZ009-010-012-014-032>034-037-058>063-261100-
...CENTRAL COLORADO...

CITY           SKY/WX    TMP DP  RH WIND       PRES   REMARKS
ASPEN          CLOUDY    37  35  92 CALM      29.78S
BUENA VISTA    CLOUDY    34  32  92 W3        29.81S
COPPER MTN     MOCLDY    32  19  59 SE13G21   29.89S WCI  22
BERTHOUD PASS  HAZE      23  14  68 E21G30    29.93S VSB<1/4 WCI   8
COTTONWOOD PAS CLOUDY    36  28  75 CALM      29.85S
GUNNISON       MOCLDY    36  28  75 N7        29.80S
KREMMLING      CLOUDY    36  34  93 CALM      29.82S
LEADVILLE      MOCLDY    26  26 100 E5        29.83R WCI  20
MONARCH PASS   PTCLDY    27  23  86 MISG      30.00F
SALIDA         MOCLDY    41  33  73 NW5       29.86S
SUNLIGHT       CLOUDY    30  30 100 CALM      29.87F
WILKERSON PASS FOG       28  27  93 SE7       29.92F VSB 1   WCI  21
$$

COZ069>075-261100-
...SAN LUIS VALLEY/SANGRE DE CRISTO MOUNTAINS...

CITY           SKY/WX    TMP DP  RH WIND       PRES   REMARKS
ALAMOSA        CLOUDY    40  28  62 SE7       29.80S
LA VETA PASS   MOCLDY    32  27  80 S14G21    29.87S WCI  22
SAGUACHE       CLOUDY    37  28  70 N3        29.80F
$$

COZ035-036-038>040-261100-
...NORTHERN COLORADO FRONT RANGE...

CITY           SKY/WX    TMP DP  RH WIND       PRES   REMARKS
DENVER INTL AP TSTM      42  40  92 E18G25    29.80R
DMNS CITY PARK   N/A     46  44  90 E9        29.78S
AURORA         NOT AVBL
FRONT RANGE AP TSTM      41  39  93 NE15      29.82R
ERIE MUNI ARPT CLOUDY    47  45  91 CALM      29.79R
BOULDER MUN AP DRIZZLE   46  45  93 NE3       29.79R
CENTENNIAL     LGT RAIN  44  43  96 CALM      29.79S
BROOMFIELD     CLOUDY    45  43  93 N3        29.79S
FORT COLLINS   CLOUDY    46  43  87 E12       29.81R
LONGMONT       LGT RAIN  49  46  87 NE3       29.81S
$$

COZ041-046-047-076>085-087-088-261100-
...PIKES PEAK/PALMER DIVIDE AND SOUTHERN FOOTHILLS...

CITY           SKY/WX    TMP DP  RH WIND       PRES   REMARKS
COLO. SPRINGS  MOCLDY    49  43  80 SE6       29.79F
A. F. ACADEMY  CLOUDY    46  41  82 S8        29.79R
ELLICOTT       CLOUDY   N/A N/A N/A SE20      29.76R
FALCON         CLOUDY    46  44  94 SE12      29.81S
FORT CARSON    CLOUDY    48  43  81 NE6       29.77R
LIMON          LGT RAIN  46  46 100 E17       29.79R FOG
MONUMENT HILL  CLOUDY    39  37  93 E3        29.80F
TRINIDAD       PTCLDY    41  25  53 W6        29.72S
$$

COZ042>045-048>051-090-091-261100-
...NORTHEAST COLORADO...

CITY           SKY/WX    TMP DP  RH WIND       PRES   REMARKS
GREELEY ARPT   CLOUDY    46  39  76 SE10      29.81R
AKRON          LGT RAIN  45  44  97 E15       29.81S
BURLINGTON     FOG       45  44  97 E16       29.81R VSB 1
WRAY           CLOUDY   N/A N/A N/A E14       29.83S
STERLING       LGT RAIN  45  45 100 E10       29.81F
HOLYOKE        CLOUDY    46  45  93 E10       29.85R FOG
FORT MORGAN    RAIN      44  43  96 E10       29.84R
$$

COZ086-089-092>099-261100-
...SOUTHEAST COLORADO...

CITY           SKY/WX    TMP DP  RH WIND       PRES   REMARKS
PUEBLO         PTCLDY    48  43  82 NE7       29.71R
LA JUNTA       CLOUDY    55  48  77 E21G30    29.70S
LAMAR          CLOUDY    52  50  93 SE21G28   29.71R FOG
SPRINGFIELD      N/A     51  49  92 SE18      29.73R
$$


USA.gov is the U.S. government's official web portal to all federal, state and local government web resources and services.